IZ0QWM-13 Scandriglia IT current weather conditions

sailwx.info

Wind from 083

Air temperature 10.0° C
Dewpoint 8.4° C

Last reported at 2015-May-29 03:47 UTC.
Time now 2015-May-29 06:16 UTC

Location: N 42°10' E 012°47'.
View on Google Maps.

See reports from other nearby stations

  
Tides and Currents Weather Stations Pressure Air Temp Water Temp Dewpoint Dewpoint Depression Visibility Wind Speed Wind Dir Waves Ship Positions
date/time (UTC)wind fromknots sea level pressurealtimeterstation pressurevisibilityair tempwater tempwave heightnotes
2015-May-29 05:47 143 1 gusting 3 12.2
2015-May-29 05:37 077 11.7
2015-May-29 05:27 077 11.1
2015-May-29 05:17 077 10.6
2015-May-29 05:07 077 10.6
2015-May-29 04:57 077 10.6
2015-May-29 04:47 077 10.0
2015-May-29 04:37 077 10.0
2015-May-29 04:27 084 10.6
2015-May-29 04:17 070 9.4
2015-May-29 04:07 100 3 gusting 4 9.4
2015-May-29 03:57 083 10.0
2015-May-29 03:47 083 10.0
2015-May-29 03:37 083 10.0
2015-May-29 03:27 083 9.4
2015-May-29 03:17 077 10.0
2015-May-29 03:07 049 9.4
2015-May-29 02:57 072 10.0
2015-May-29 02:47 069 10.0
2015-May-29 02:37 082 10.0
2015-May-29 02:27 072 2 gusting 4 10.0
2015-May-29 02:17 090 10.0
2015-May-29 02:07 084 10.0
2015-May-29 01:57 084 10.0
2015-May-29 01:47 069 1 gusting 3 10.6
2015-May-29 01:37 065 10.6
2015-May-29 01:27 091 10.6
2015-May-29 01:17 091 10.6
2015-May-29 01:07 091 10.6
2015-May-29 00:57 091 10.6
2015-May-29 00:47 091 11.1
2015-May-29 00:37 084 10.6
2015-May-29 00:27 084 10.6
2015-May-29 00:17 084 10.6
2015-May-29 00:07 084 10.6
2015-May-28 23:57 084 11.1
2015-May-28 23:47 084 11.1
2015-May-28 23:37 084 11.1
2015-May-28 23:27 112 11.1
2015-May-28 23:17 112 11.1
2015-May-28 23:07 112 11.7
2015-May-28 22:57 112 11.7
2015-May-28 22:47 112 12.2
2015-May-28 22:37 112 11.7
2015-May-28 22:27 112 11.7
2015-May-28 22:17 066 11.7
2015-May-28 22:07 135 12.2
2015-May-28 21:57 089 12.2
2015-May-28 21:47 089 12.2
2015-May-28 21:37 089 12.8
2015-May-28 21:27 089 12.8
2015-May-28 21:17 089 12.8
2015-May-28 21:07 062 12.8
2015-May-28 20:57 073 12.8
2015-May-28 20:47 062 13.3
2015-May-28 20:37 049 12.8
2015-May-28 20:27 049 13.3
2015-May-28 20:17 049 12.8
2015-May-28 20:07 049 13.3
2015-May-28 19:57 094 13.3
2015-May-28 19:47 090 13.9
2015-May-28 19:37 097 14.4
2015-May-28 19:27 084 15.0
2015-May-28 19:17 101 15.6
2015-May-28 19:07 053 16.7
2015-May-28 18:57 281 18.3
2015-May-28 18:47 281 18.3
2015-May-28 18:37 281 18.9
2015-May-28 18:27 281 19.4
2015-May-28 18:17 281 20.0
2015-May-28 18:07 281 20.6
2015-May-28 17:57 281 20.6
2015-May-28 17:47 259 20.0
2015-May-28 17:37 259 21.7
2015-May-28 17:27 056 22.2
2015-May-28 17:17 056 22.2
2015-May-28 17:07 155 22.2
2015-May-28 16:57 155 22.2
2015-May-28 16:47 155 22.8
2015-May-28 16:37 359 22.8
2015-May-28 16:27 353 22.8
2015-May-28 16:17 353 22.8
2015-May-28 16:07 318 23.3
2015-May-28 15:57 318 21.7
2015-May-28 15:47 318 22.8
2015-May-28 15:37 270 23.3
2015-May-28 15:27 037 23.3
2015-May-28 15:17 037 22.8
2015-May-28 15:07 359 23.3
2015-May-28 14:57 359 22.8
2015-May-28 14:47 359 21.7
2015-May-28 14:37 359 22.2
2015-May-28 14:27 359 22.8
2015-May-28 14:17 359 22.8
2015-May-28 14:07 359 22.8
2015-May-28 13:57 359 22.2
2015-May-28 13:47 183 23.3
2015-May-28 13:37 183 21.7
2015-May-28 13:27 183 22.2
2015-May-28 13:17 183 22.2
2015-May-28 13:07 183 21.1
2015-May-28 12:57 183 21.1
2015-May-28 12:47 052 21.7
2015-May-28 12:37 052 20.6
2015-May-28 12:27 044 20.6
2015-May-28 12:17 044 21.1
2015-May-28 12:07 044 20.6
2015-May-28 11:57 044 21.1
2015-May-28 11:47 044 20.6
2015-May-28 11:37 082 20.0
2015-May-28 11:27 082 20.0
2015-May-28 11:17 082 20.0
2015-May-28 11:07 082 20.0
2015-May-28 10:57 070 20.6
2015-May-28 10:47 070 20.6
2015-May-28 10:37 070 20.6
2015-May-28 10:27 070 20.6
2015-May-28 10:17 070 20.0
2015-May-28 10:07 070 20.0
2015-May-28 09:57 070 20.0
2015-May-28 09:47 070 19.4
2015-May-28 09:37 070 19.4
2015-May-28 09:27 070 19.4
2015-May-28 09:17 070 19.4
2015-May-28 09:07 070 19.4
2015-May-28 08:57 122 19.4
2015-May-28 08:47 104 18.3
2015-May-28 08:37 263 18.3
2015-May-28 08:27 038 18.3
2015-May-28 08:17 038 18.3
2015-May-28 08:07 020 18.3
2015-May-28 07:57 020 17.8
2015-May-28 07:47 020 17.2
2015-May-28 07:37 020 17.2
2015-May-28 07:27 020 17.8
2015-May-28 07:17 020 16.7
2015-May-28 07:07 020 16.7
2015-May-28 06:57 020 16.1
2015-May-28 06:47 020 15.6
2015-May-28 06:37 020 15.0
2015-May-28 06:27 020 14.4
2015-May-28 06:17 020 13.9
2015-May-28 06:07 020 13.3
2015-May-28 05:57 020 12.2
2015-May-28 05:47 020 11.7
2015-May-28 05:37 058 11.7
2015-May-28 05:27 058 11.1
2015-May-28 05:17 180 10.6
2015-May-28 05:07 180 10.0
2015-May-28 04:57 180 10.0
2015-May-28 04:47 042 10.0
2015-May-28 04:37 142 9.4
2015-May-28 04:27 065 10.0
2015-May-28 04:17 032 9.4
2015-May-28 04:07 032 9.4
2015-May-28 03:57 028 9.4
2015-May-28 03:47 028 9.4
2015-May-28 03:37 028 10.0
2015-May-28 03:27 028 10.0
2015-May-28 03:17 046 9.4
2015-May-28 03:07 046 9.4
2015-May-28 02:57 046 10.0
2015-May-28 02:47 046 10.0
2015-May-28 02:37 046 10.0
2015-May-28 02:27 046 10.0
2015-May-28 02:17 046 10.0
2015-May-28 02:07 046 10.6
2015-May-28 01:57 046 10.6
2015-May-28 01:47 046 11.1
2015-May-28 01:37 046 11.1
2015-May-28 01:27 046 11.1
2015-May-28 01:17 046 11.1
2015-May-28 01:07 046 11.7
2015-May-28 00:57 079 11.7
2015-May-28 00:47 079 11.7
2015-May-28 00:37 079 11.7
2015-May-28 00:27 079 12.2
2015-May-28 00:17 079 11.7
2015-May-28 00:07 079 12.2
2015-May-27 23:57 155 12.2
2015-May-27 23:47 155 12.2
2015-May-27 23:37 041 12.2
2015-May-27 23:27 041 12.2
2015-May-27 23:17 041 12.2
2015-May-27 23:07 041 12.2
2015-May-27 22:57 041 12.2
2015-May-27 22:47 041 12.2
2015-May-27 22:37 041 12.2
2015-May-27 22:27 041 12.2
2015-May-27 22:17 041 12.8
2015-May-27 22:07 041 12.2
2015-May-27 21:57 041 12.2
2015-May-27 21:47 041 12.8
2015-May-27 21:37 041 12.2
2015-May-27 21:27 041 12.2
2015-May-27 21:17 041 12.8
2015-May-27 21:07 041 12.8
2015-May-27 20:57 041 12.8
2015-May-27 20:47 041 12.8
2015-May-27 20:37 041 13.3
2015-May-27 20:27 041 13.3
2015-May-27 20:17 041 13.9
2015-May-27 20:07 041 13.3
2015-May-27 19:57 041 13.3
2015-May-27 19:47 041 13.3
2015-May-27 19:37 041 13.9
2015-May-27 19:27 041 13.3
2015-May-27 19:17 041 13.9
2015-May-27 19:07 041 13.9
2015-May-27 18:57 041 14.4
2015-May-27 18:47 041 15.0
2015-May-27 18:37 150 15.0
2015-May-27 18:27 150 15.6
2015-May-27 18:17 150 15.6
2015-May-27 18:07 150 15.6
2015-May-27 17:57 150 15.6
2015-May-27 17:47 150 16.1
2015-May-27 17:37 150 15.6
2015-May-27 17:27 150 16.1
2015-May-27 17:17 150 16.1
2015-May-27 17:07 150 16.1
2015-May-27 16:57 150 17.2
2015-May-27 16:47 150 16.7
2015-May-27 16:37 150 16.1
2015-May-27 16:27 150 15.6
2015-May-27 16:17 150 15.0
2015-May-27 16:07 150 15.0
2015-May-27 15:57 150 15.0
2015-May-27 15:47 150 15.0
2015-May-27 15:37 150 15.0
2015-May-27 15:27 150 15.0
2015-May-27 15:17 150 15.0
2015-May-27 15:07 150 15.0
2015-May-27 14:57 150 15.0
2015-May-27 14:47 150 14.4
2015-May-27 14:37 150 15.0
2015-May-27 14:27 219 14.4
2015-May-27 14:17 194 14.4
2015-May-27 14:07 179 6 gusting 7 14.4
2015-May-27 13:57 149 15.0
2015-May-27 13:47 138 15.0
2015-May-27 13:37 160 15.6
2015-May-27 13:27 160 15.6
2015-May-27 13:17 160 15.0
2015-May-27 13:07 160 14.4
2015-May-27 12:57 160 14.4
2015-May-27 12:47 160 15.0
2015-May-27 12:37 160 14.4
2015-May-27 12:27 160 14.4
2015-May-27 12:17 160 14.4
2015-May-27 12:07 160 15.0
2015-May-27 11:57 160 15.0
2015-May-27 11:47 160 15.6
2015-May-27 11:37 160 16.1
2015-May-27 11:27 160 16.1
2015-May-27 11:17 160 17.8
2015-May-27 11:07 160 19.4
2015-May-27 10:57 160 20.0
2015-May-27 10:47 160 20.6
2015-May-27 10:37 160 21.1
2015-May-27 10:27 042 21.7
2015-May-27 10:17 359 22.2
2015-May-27 10:07 359 22.2
2015-May-27 09:57 359 22.2
2015-May-27 09:47 359 21.7
2015-May-27 09:37 359 21.7
2015-May-27 09:27 359 21.1
2015-May-27 09:17 359 20.6
2015-May-27 09:07 359 20.0
2015-May-27 08:57 359 20.6
2015-May-27 08:47 359 20.0
2015-May-27 08:37 359 20.0
2015-May-27 08:27 359 20.0
2015-May-27 08:17 359 19.4
2015-May-27 08:07 359 18.9
2015-May-27 07:57 087 18.3
2015-May-27 07:47 087 17.8
2015-May-27 07:37 087 1 gusting 1 17.2
2015-May-27 07:27 087 17.2
2015-May-27 07:17 087 17.2
2015-May-27 07:07 087 17.2
2015-May-27 06:57 087 16.7
2015-May-27 06:47 087 16.1
2015-May-27 06:37 087 15.6
2015-May-27 06:27 087 14.4
2015-May-27 06:17 087 13.9
2015-May-27 06:07 087 13.3